Regional Weather Roundup
Issued by NWS Northern Indiana

Home | Current Version | Previous Version | Text Only | Print | Product List | Glossary Off
Versions: 1 2 3 4 5 6 7 8 9 10 11 12 13 14 15 16 17 18 19 20 21 22 23 24 25 26 27 28 29 30 31 32 33 34 35 36 37 38 39 40 41 42 43 44 45 46 47 48 49 50

000
ASUS43 KIWX 191610
RWRIWX

KIWX WEATHER ROUNDUP
NATIONAL WEATHER SERVICE NORTHERN INDIANA
1200 PM EDT SAT APR 19 2014

NOTE: "FAIR" INDICATES FEW OR NO CLOUDS BELOW 12,000 FEET WITH NO
SIGNIFICANT WEATHER AND/OR OBSTRUCTIONS TO VISIBILITY.

* THESE STATIONS ARE NOT UNDER NWS QUALITY CONTROL. THEY ALSO MAY NOT
  REPORT WEATHER SUCH AS PRECIPITATION OR FOG.

INZ001>027-191700-
NORTHERN INDIANA

CITY           SKY/WX    TMP DP  RH WIND       PRES   REMARKS
GARY*          MOSUNNY   50  37  62 NE6       30.37F
VALPARAISO     SUNNY     56  37  49 E10       30.36F
MICHIGAN CITY* SUNNY     55  36  47 E7        30.37F
LAPORTE*       SUNNY     53  37  53 E13       30.38F
SOUTH BEND     SUNNY     54  36  50 SE14G22   30.39F
ELKHART*       SUNNY     50  36  57 E8        30.40S
GOSHEN         SUNNY     53  37  54 E13       30.40S
MONTICELLO*    SUNNY     54  40  59 E8        30.36S
LOGANSPORT*    SUNNY     54  37  54 E15G22    30.37F
ROCHESTER*     SUNNY     55  37  50 SE9       30.38S
WARSAW*        SUNNY     52  36  54 SE13      30.39S
ANGOLA*        SUNNY     48  36  61 SE16      30.41F
FORT WAYNE     SUNNY     51  36  56 E16G24    30.41S
HUNTINGTON*    FAIR      51  37  58 E12G17    30.39S
PERU/GRISSOM   SUNNY     55  41  60 E14       30.36F
MARION*        SUNNY     52  38  57 E13       30.38R

$$
INZ028>050-191700-
CENTRAL INDIANA

CITY           SKY/WX    TMP DP  RH WIND       PRES   REMARKS
LAFAYETTE      SUNNY     57  40  52 E15       30.35S
KOKOMO*          N/A    N/A N/A N/A MISG        N/A
MUNCIE*        SUNNY     55  40  56 E14       30.36F
INDIANAPOLIS   MOSUNNY   59  42  53 E10       30.33F

$$
MIZ043>046-050>051-056>058-064>065-071>073-077>080-191700-
SOUTHWEST LOWER MICHIGAN

CITY           SKY/WX    TMP DP  RH WIND       PRES   REMARKS
BATTLE CREEK   SUNNY     49  28  44 E8        30.41F
BENTON HARBOR  SUNNY     52  35  52 E13       30.38F
COLDWATER*     SUNNY     51  31  45 E10       30.41F
HILLSDALE*     SUNNY     51  24  34 E12       30.41F
HOLLAND        SUNNY     51  32  48 E9        30.41F
GRAND RAPIDS   MOSUNNY   49  31  49 E14       30.43F
KALAMAZOO      SUNNY     51  31  46 E9        30.41F
STURGIS*       SUNNY     52  36  54 E12G17    30.39F
THREE RIVERS*  FAIR      51  33  50 E8        30.42S

$$
OHZ001>008-015>018-024>025-191700-
NORTHWEST OHIO

CITY           SKY/WX    TMP DP  RH WIND       PRES   REMARKS
WAUSEON*       FAIR      52  30  43 E14       30.43S
DEFIANCE       SUNNY     52  35  52 E12       30.43F
FINDLAY        SUNNY     50  34  54 NE14      30.41S
TOLEDO EXPRESS SUNNY     50  30  46 E14       30.44S
TOLEDO METCALF SUNNY     47  33  58 E13G21    30.46R
LIMA           SUNNY     53  37  54 NE15      30.39S

$$
&&



USA.gov is the U.S. government's official web portal to all federal, state and local government web resources and services.